TimeCDT,TemperatureF,Dew PointF,Humidity,Sea Level PressureIn,VisibilityMPH,Wind Direction,Wind SpeedMPH,Gust SpeedMPH,PrecipitationIn,Events,Conditions,WindDirDegrees,DateUTC
12:58 AM,74.5,59.4,59,29.97,10.0,SE,8.1,-,N/A,,Clear,130,2013-08-21 05:58:00
1:58 AM,73.6,59.7,62,29.97,10.0,ESE,6.9,-,N/A,,Clear,120,2013-08-21 06:58:00
2:58 AM,71.8,59.7,66,29.98,10.0,Calm,Calm,-,N/A,,Clear,0,2013-08-21 07:58:00
3:58 AM,68.2,59.4,73,29.99,10.0,ESE,4.6,-,N/A,,Clear,110,2013-08-21 08:58:00
4:58 AM,66.6,59.0,77,29.99,10.0,ESE,4.6,-,N/A,,Clear,110,2013-08-21 09:58:00
5:58 AM,65.1,59.2,81,30.00,10.0,East,4.6,-,N/A,,Clear,100,2013-08-21 10:58:00
6:58 AM,65.8,59.0,79,30.02,10.0,East,2.3,-,N/A,,Clear,80,2013-08-21 11:58:00
7:58 AM,65.5,59.9,82,30.04,10.0,ESE,4.6,-,N/A,,Clear,110,2013-08-21 12:58:00
8:58 AM,73.6,60.1,63,30.05,10.0,South,6.9,-,N/A,,Clear,170,2013-08-21 13:58:00
9:58 AM,81.3,61.2,50,30.06,10.0,South,8.1,-,N/A,,Clear,180,2013-08-21 14:58:00
10:58 AM,87.1,60.6,41,30.05,10.0,South,8.1,-,N/A,,Clear,190,2013-08-21 15:58:00
11:58 AM,91.0,58.3,33,30.05,10.0,South,11.5,19.6,N/A,,Clear,190,2013-08-21 16:58:00
12:58 PM,92.7,56.1,29,30.04,10.0,South,10.4,20.7,N/A,,Clear,180,2013-08-21 17:58:00
1:58 PM,94.3,56.7,28,30.02,8.0,South,11.5,20.7,N/A,,Clear,170,2013-08-21 18:58:00
2:58 PM,94.8,56.3,27,30.00,10.0,SSE,8.1,19.6,N/A,,Clear,160,2013-08-21 19:58:00
3:58 PM,95.4,56.8,27,29.99,10.0,South,13.8,23.0,N/A,,Clear,180,2013-08-21 20:58:00
4:46 PM,96.8,55.4,25,30.02,10.0,SSW,11.5,-,N/A,,Clear,210,2013-08-21 21:46:00
4:58 PM,96.1,54.0,24,29.96,10.0,SE,12.7,20.7,N/A,,Clear,130,2013-08-21 21:58:00
5:58 PM,94.5,55.4,27,29.97,10.0,SSE,13.8,16.1,N/A,,Clear,160,2013-08-21 22:58:00
6:58 PM,92.8,56.5,29,29.96,10.0,South,12.7,-,N/A,,Clear,170,2013-08-21 23:58:00
7:58 PM,89.2,54.5,31,29.96,10.0,SE,10.4,-,N/A,,Clear,140,2013-08-22 00:58:00
8:58 PM,82.2,54.0,38,29.98,10.0,ESE,6.9,-,N/A,,Clear,120,2013-08-22 01:58:00
9:58 PM,78.6,55.9,46,30.00,10.0,SE,9.2,-,N/A,,Clear,130,2013-08-22 02:58:00
10:58 PM,76.1,56.1,50,30.01,10.0,SSE,5.8,-,N/A,,Clear,150,2013-08-22 03:58:00
11:58 PM,73.9,57.9,57,30.01,10.0,SE,8.1,-,N/A,,Clear,130,2013-08-22 04:58:00